Regional Weather Roundup
Issued by NWS

Home | Current Version | Previous Version | Graphics & Text | Print | Product List | Glossary On
Versions: 1 2 3 4 5 6 7 8 9 10 11 12 13 14 15 16 17 18 19 20 21 22 23 24 25 26 27 28 29 30 31 32 33 34 35 36 37 38 39 40 41 42 43 44 45 46 47 48 49 50
000
ASUS45 KBOI 040110
RWRID

IDAHO REGIONAL WEATHER ROUNDUP
NATIONAL WEATHER SERVICE BOISE ID
700 PM MDT FRI JUL 03 2015

NOTE: "FAIR" INDICATES FEW OR NO CLOUDS BELOW 12000 FEET
WITH NO SIGNIFICANT WEATHER AND/OR OBSTRUCTIONS TO VISIBILITY

IDZ012-014-040200-
SOUTHWEST IDAHO


CITY           SKY/WX    TMP DP  RH WIND       PRES   REMARKS
BOISE          MOSUNNY  101  34   9 NW10      29.79F HX  95
CALDWELL       MOSUNNY  102  39  11 N3        29.77F HX  97
MOUNTAIN HOME  PTSUNNY  101  37  10 N17       29.79F HX  95
$$

IDZ016-017-040200-
SOUTHCENTRAL IDAHO


CITY           SKY/WX    TMP DP  RH WIND       PRES   REMARKS
BURLEY         CLOUDY    86  52  30 W13       29.88F
JEROME         PTSUNNY   93  50  23 SW9       29.89F HX  90
TWIN FALLS     CLOUDY    96  41  15 W10       29.88F HX  92
$$

IDZ019>023-040200-
SOUTHEAST IDAHO


CITY           SKY/WX    TMP DP  RH WIND       PRES   REMARKS
IDAHO FALLS    MOSUNNY   91  48  22 S15       29.88F
POCATELLO      SUNNY     94  47  20 SW15      29.89F HX  90
REXBURG        MOSUNNY   91  45  20 S7        29.90F
$$

IDZ006-010-011-018-031-032-040200-
CENTRAL IDAHO MOUNTAINS


CITY           SKY/WX    TMP DP  RH WIND       PRES   REMARKS
MCCALL         SUNNY     88  36  15 NW7       29.97F
HAILEY         SUNNY     90  41  18 W13G20    29.97F
STANLEY          N/A     86  28  12 NW7       30.09F
SALMON         SUNNY     91  39  16 N6        29.83F
CHALLIS        SUNNY     94  28   9 NW10      29.91F
$$

IDZ002-004-006-007-026-040200-
NORTHERN IDAHO


CITY           SKY/WX    TMP DP  RH WIND       PRES   REMARKS
LEWISTON       SUNNY    103  42  12 NE3       29.72F HX  98
LOWELL           N/A     88  54  31 N3        29.74F
COEUR D`ALENE  SUNNY     97  45  16 SW5       29.77F HX  93
MULLAN PASS    SUNNY     79  40  24 VRB3      30.09F
$$


USA.gov is the U.S. government's official web portal to all federal, state and local government web resources and services.